• In Uzbekistan
  • List of Countries
  • For 7 days
  • Water Temperature
  • Satellite Maps
  • Weather Map
  • Weather Widgets
  • user-avatar
    Login

    Hourly Weather La Rioja

    Today, 23 January, Monday

    Time Temperature Precipitation Wind Pressure Humidity
    00:00 +29°C° 0.5 mm 2 mps 715 mmHg 53%
    01:00 +29°C° 0.5 mm 2 mps 715 mmHg 55%
    02:00 +28°C° 0.5 mm 1 mps 715 mmHg 56%
    03:00 +28°C° 0.5 mm 1 mps 715 mmHg 57%
    04:00 +28°C° 0.5 mm 1 mps 715 mmHg 57%
    05:00 +27°C° 0.5 mm 1 mps 715 mmHg 57%
    06:00 +28°C° 0.4 mm 1 mps 715 mmHg 54%
    07:00 +29°C° 0.4 mm 1 mps 715 mmHg 50%
    08:00 +29°C° 0.4 mm 1 mps 716 mmHg 46%
    09:00 +31°C° 0.1 mm 1 mps 715 mmHg 42%
    10:00 +32°C° 0.1 mm 1 mps 715 mmHg 39%
    11:00 +33°C° 0.1 mm 1 mps 715 mmHg 36%
    12:00 +34°C° 0 mm 1 mps 715 mmHg 33%
    13:00 +35°C° 0 mm 1 mps 714 mmHg 31%
    14:00 +37°C° 0 mm 2 mps 713 mmHg 28%
    15:00 +37°C° 0 mm 2 mps 712 mmHg 28%
    16:00 +37°C° 0 mm 3 mps 712 mmHg 28%
    17:00 +37°C° 0 mm 3 mps 711 mmHg 28%
    18:00 +36°C° 0.1 mm 3 mps 711 mmHg 32%
    19:00 +34°C° 0.1 mm 3 mps 711 mmHg 35%
    20:00 +33°C° 0.1 mm 3 mps 711 mmHg 39%
    21:00 +31°C° 0.1 mm 3 mps 712 mmHg 41%
    22:00 +30°C° 0.1 mm 2 mps 712 mmHg 42%
    23:00 +29°C° 0.1 mm 2 mps 713 mmHg 44%

    Tomorrow, 24 January, Tuesday

    Time Temperature Precipitation Wind Pressure Humidity
    00:00 +28°C° 0 mm 2 mps 712 mmHg 43%
    01:00 +28°C° 0 mm 2 mps 712 mmHg 43%
    02:00 +28°C° 0 mm 2 mps 712 mmHg 43%
    03:00 +27°C° 0 mm 2 mps 712 mmHg 43%
    04:00 +27°C° 0 mm 2 mps 712 mmHg 43%
    05:00 +26°C° 0 mm 2 mps 712 mmHg 43%
    06:00 +28°C° 0 mm 2 mps 712 mmHg 39%
    07:00 +30°C° 0 mm 2 mps 713 mmHg 35%
    08:00 +31°C° 0 mm 2 mps 714 mmHg 31%
    09:00 +34°C° 0 mm 2 mps 714 mmHg 28%
    10:00 +36°C° 0 mm 2 mps 715 mmHg 26%
    11:00 +37°C° 0 mm 3 mps 715 mmHg 24%
    12:00 +38°C° 0 mm 3 mps 715 mmHg 23%
    13:00 +38°C° 0 mm 4 mps 714 mmHg 23%
    14:00 +40°C° 0 mm 4 mps 714 mmHg 23%
    15:00 +38°C° 0 mm 4 mps 714 mmHg 24%
    16:00 +39°C° 0 mm 5 mps 713 mmHg 25%
    17:00 +39°C° 0 mm 5 mps 713 mmHg 26%
    18:00 +36°C° 0.2 mm 4 mps 714 mmHg 29%
    19:00 +34°C° 0.2 mm 4 mps 714 mmHg 33%
    20:00 +33°C° 0.2 mm 4 mps 715 mmHg 36%
    21:00 +32°C° 0.1 mm 4 mps 715 mmHg 38%
    22:00 +30°C° 0.1 mm 4 mps 716 mmHg 41%
    23:00 +29°C° 0.1 mm 4 mps 717 mmHg 43%

    Day after tomorrow, 25 January, Wednesday

    Time Temperature Precipitation Wind Pressure Humidity
    00:00 +29°C° 0.1 mm 3 mps 717 mmHg 43%
    01:00 +29°C° 0.1 mm 3 mps 717 mmHg 43%
    02:00 +28°C° 0.1 mm 3 mps 717 mmHg 43%
    03:00 +28°C° 0 mm 3 mps 717 mmHg 44%
    04:00 +27°C° 0 mm 2 mps 718 mmHg 45%
    05:00 +26°C° 0 mm 2 mps 718 mmHg 47%
    06:00 +27°C° 0 mm 2 mps 718 mmHg 43%
    07:00 +28°C° 0 mm 1 mps 719 mmHg 40%
    08:00 +29°C° 0 mm 1 mps 720 mmHg 36%
    09:00 +31°C° 0 mm 1 mps 720 mmHg 33%
    10:00 +32°C° 0 mm 2 mps 720 mmHg 31%
    11:00 +34°C° 0 mm 2 mps 720 mmHg 28%
    12:00 +35°C° 0 mm 2 mps 719 mmHg 27%
    13:00 +36°C° 0 mm 3 mps 718 mmHg 26%
    14:00 +37°C° 0 mm 3 mps 718 mmHg 24%
    15:00 +38°C° 0 mm 3 mps 717 mmHg 24%
    16:00 +38°C° 0 mm 4 mps 716 mmHg 24%
    17:00 +38°C° 0 mm 4 mps 716 mmHg 24%
    18:00 +36°C° 0 mm 3 mps 716 mmHg 28%
    19:00 +35°C° 0 mm 3 mps 717 mmHg 31%
    20:00 +32°C° 0 mm 2 mps 717 mmHg 35%
    21:00 +31°C° 0 mm 2 mps 717 mmHg 36%
    22:00 +30°C° 0 mm 2 mps 718 mmHg 38%
    23:00 +29°C° 0 mm 2 mps 719 mmHg 40%

    26 January, Thursday

    Time Temperature Precipitation Wind Pressure Humidity
    00:00 +28°C° 0 mm 2 mps 718 mmHg 41%
    01:00 +28°C° 0 mm 2 mps 718 mmHg 42%
    02:00 +27°C° 0 mm 2 mps 718 mmHg 43%
    03:00 +26°C° 0 mm 2 mps 718 mmHg 44%
    04:00 +26°C° 0 mm 1 mps 718 mmHg 44%
    05:00 +25°C° 0 mm 1 mps 718 mmHg 45%
    06:00 +27°C° 0 mm 1 mps 718 mmHg 41%
    07:00 +28°C° 0 mm 1 mps 719 mmHg 36%
    08:00 +29°C° 0 mm 1 mps 719 mmHg 32%
    09:00 +31°C° 0 mm 1 mps 719 mmHg 30%
    10:00 +32°C° 0 mm 2 mps 719 mmHg 27%
    11:00 +35°C° 0 mm 2 mps 719 mmHg 25%
    12:00 +36°C° 0 mm 2 mps 719 mmHg 23%
    13:00 +37°C° 0 mm 3 mps 718 mmHg 22%
    14:00 +38°C° 0 mm 3 mps 717 mmHg 21%
    15:00 +39°C° 0 mm 3 mps 717 mmHg 21%
    16:00 +40°C° 0 mm 4 mps 716 mmHg 21%
    17:00 +40°C° 0 mm 4 mps 716 mmHg 20%
    18:00 +37°C° 0 mm 4 mps 716 mmHg 23%
    19:00 +35°C° 0 mm 3 mps 716 mmHg 26%
    20:00 +33°C° 0 mm 3 mps 717 mmHg 29%
    21:00 +31°C° 0 mm 2 mps 717 mmHg 31%
    22:00 +30°C° 0 mm 2 mps 718 mmHg 32%
    23:00 +29°C° 0 mm 2 mps 718 mmHg 34%

    27 January, Friday

    Time Temperature Precipitation Wind Pressure Humidity
    00:00 +28°C° 0 mm 2 mps 718 mmHg 35%
    01:00 +28°C° 0 mm 2 mps 717 mmHg 36%
    02:00 +27°C° 0 mm 2 mps 717 mmHg 36%
    03:00 +26°C° 0 mm 2 mps 717 mmHg 37%
    04:00 +26°C° 0 mm 1 mps 717 mmHg 38%
    05:00 +25°C° 0 mm 1 mps 716 mmHg 38%
    06:00 +27°C° 0 mm 1 mps 717 mmHg 34%
    07:00 +29°C° 0 mm 1 mps 717 mmHg 30%
    08:00 +31°C° 0 mm 1 mps 718 mmHg 26%
    09:00 +32°C° 0 mm 1 mps 718 mmHg 24%
    10:00 +35°C° 0 mm 2 mps 717 mmHg 22%
    11:00 +37°C° 0 mm 2 mps 717 mmHg 20%
    12:00 +38°C° 0 mm 2 mps 716 mmHg 19%
    13:00 +39°C° 0 mm 3 mps 715 mmHg 17%
    14:00 +40°C° 0 mm 3 mps 715 mmHg 16%
    15:00 +41°C° 0 mm 4 mps 714 mmHg 15%
    16:00 +41°C° 0 mm 4 mps 714 mmHg 15%
    17:00 +41°C° 0 mm 5 mps 713 mmHg 14%
    18:00 +38°C° 0 mm 4 mps 713 mmHg 17%
    19:00 +36°C° 0 mm 4 mps 713 mmHg 20%
    20:00 +34°C° 0 mm 3 mps 714 mmHg 23%
    21:00 +33°C° 0 mm 3 mps 714 mmHg 24%
    22:00 +30°C° 0 mm 2 mps 714 mmHg 26%
    23:00 +29°C° 0 mm 2 mps 715 mmHg 28%

    28 January, Saturday

    Time Temperature Precipitation Wind Pressure Humidity
    00:00 +29°C° 0 mm 2 mps 714 mmHg 29%
    01:00 +28°C° 0 mm 2 mps 714 mmHg 30%
    02:00 +27°C° 0 mm 2 mps 714 mmHg 31%
    03:00 +27°C° 0 mm 2 mps 714 mmHg 32%
    04:00 +26°C° 0 mm 2 mps 714 mmHg 34%
    05:00 +26°C° 0 mm 1 mps 714 mmHg 35%
    06:00 +28°C° 0 mm 2 mps 714 mmHg 32%
    07:00 +29°C° 0 mm 2 mps 714 mmHg 28%
    08:00 +31°C° 0 mm 2 mps 715 mmHg 24%
    09:00 +34°C° 0 mm 2 mps 715 mmHg 22%
    10:00 +36°C° 0 mm 2 mps 714 mmHg 20%
    11:00 +38°C° 0 mm 3 mps 714 mmHg 18%
    12:00 +39°C° 0 mm 3 mps 713 mmHg 16%
    13:00 +41°C° 0 mm 4 mps 713 mmHg 14%
    14:00 +42°C° 0 mm 5 mps 712 mmHg 13%
    15:00 +42°C° 0 mm 5 mps 711 mmHg 13%
    16:00 +42°C° 0 mm 6 mps 711 mmHg 12%
    17:00 +42°C° 0 mm 6 mps 711 mmHg 12%
    18:00 +40°C° 0 mm 5 mps 711 mmHg 16%
    19:00 +36°C° 0 mm 4 mps 711 mmHg 20%
    20:00 +34°C° 0 mm 3 mps 712 mmHg 23%
    21:00 +33°C° 0 mm 3 mps 712 mmHg 24%
    22:00 +31°C° 0 mm 3 mps 712 mmHg 25%
    23:00 +30°C° 0 mm 2 mps 713 mmHg 26%
    Show more